Time,TemperatureF,DewpointF,PressureIn,WindDirection,WindDirectionDegrees,WindSpeedMPH,WindSpeedGustMPH,Humidity,HourlyPrecipIn,Conditions,Clouds,dailyrainin,SoftwareType,DateUTC
2013-06-18 00:01:00,74.2,52.1,29.83,NNE,15,0.0,1.0,46,0.00,,,0.00,WeatherCatV1.15B25,2013-06-18 05:01:00,
2013-06-18 00:06:00,74.0,52.5,29.83,NNE,15,0.0,0.0,47,0.00,,,0.00,WeatherCatV1.15B25,2013-06-18 05:06:00,
2013-06-18 00:11:00,73.9,52.4,29.83,NNE,15,0.0,0.0,47,0.00,,,0.00,WeatherCatV1.15B25,2013-06-18 05:11:00,
2013-06-18 00:16:00,73.5,52.6,29.82,NNE,15,0.0,0.0,48,0.00,,,0.00,WeatherCatV1.15B25,2013-06-18 05:16:00,
2013-06-18 00:21:00,73.3,52.4,29.82,NNE,14,1.0,1.0,48,0.00,,,0.00,WeatherCatV1.15B25,2013-06-18 05:21:00,
2013-06-18 00:26:00,73.2,52.9,29.82,NNE,14,0.0,1.0,49,0.00,,,0.00,WeatherCatV1.15B25,2013-06-18 05:26:00,
2013-06-18 00:31:00,73.0,53.2,29.83,NNE,14,0.0,0.0,50,0.00,,,0.00,WeatherCatV1.15B25,2013-06-18 05:31:00,
2013-06-18 00:36:00,72.7,53.0,29.83,NNE,14,0.0,0.0,50,0.00,,,0.00,WeatherCatV1.15B25,2013-06-18 05:36:00,
2013-06-18 00:41:00,72.5,52.8,29.83,NNE,14,0.0,0.0,50,0.00,,,0.00,WeatherCatV1.15B25,2013-06-18 05:41:00,
2013-06-18 00:46:00,72.5,52.8,29.83,NNE,14,0.0,0.0,50,0.00,,,0.00,WeatherCatV1.15B25,2013-06-18 05:46:00,
2013-06-18 00:51:00,72.5,52.8,29.83,NNE,14,0.0,0.0,50,0.00,,,0.00,WeatherCatV1.15B25,2013-06-18 05:51:00,
2013-06-18 00:56:00,72.5,52.8,29.83,NNE,14,0.0,0.0,50,0.00,,,0.00,WeatherCatV1.15B25,2013-06-18 05:56:00,
2013-06-18 01:00:00,72.3,53.1,29.83,NNE,14,0.0,0.0,51,0.00,,,0.00,WeatherCatV1.15B25,2013-06-18 06:00:00,
2013-06-18 01:02:00,72.1,53.5,29.83,NNE,14,0.0,0.0,52,0.00,,,0.00,WeatherCatV1.15B25,2013-06-18 06:02:00,
2013-06-18 01:07:00,71.8,53.7,29.83,NNE,14,0.0,1.0,53,0.00,,,0.00,WeatherCatV1.15B25,2013-06-18 06:07:00,
2013-06-18 01:12:00,71.5,52.9,29.83,NNE,14,0.0,1.0,52,0.00,,,0.00,WeatherCatV1.15B25,2013-06-18 06:12:00,
2013-06-18 01:17:00,71.6,52.5,29.82,NNE,17,0.0,0.0,51,0.00,,,0.00,WeatherCatV1.15B25,2013-06-18 06:17:00,
2013-06-18 01:22:00,71.5,52.9,29.82,NNE,17,0.0,0.0,52,0.00,,,0.00,WeatherCatV1.15B25,2013-06-18 06:22:00,
2013-06-18 01:27:00,71.5,52.4,29.82,NNE,17,0.0,0.0,51,0.00,,,0.00,WeatherCatV1.15B25,2013-06-18 06:27:00,
2013-06-18 01:32:00,71.5,52.9,29.82,NNE,17,0.0,0.0,52,0.00,,,0.00,WeatherCatV1.15B25,2013-06-18 06:32:00,
2013-06-18 01:37:00,71.1,53.1,29.82,NNE,17,0.0,0.0,53,0.00,,,0.00,WeatherCatV1.15B25,2013-06-18 06:37:00,
2013-06-18 01:43:00,70.8,53.3,29.82,NNE,17,0.0,0.0,54,0.00,,,0.00,WeatherCatV1.15B25,2013-06-18 06:43:00,
2013-06-18 01:48:00,70.3,52.3,29.82,NNE,19,0.0,5.0,53,0.00,,,0.00,WeatherCatV1.15B25,2013-06-18 06:48:00,
2013-06-18 01:53:00,70.3,53.4,29.82,NNE,19,0.0,0.0,55,0.00,,,0.00,WeatherCatV1.15B25,2013-06-18 06:53:00,
2013-06-18 01:58:00,69.8,53.9,29.82,NNE,18,0.0,1.0,57,0.00,,,0.00,WeatherCatV1.15B25,2013-06-18 06:58:00,
2013-06-18 02:03:00,69.1,53.7,29.83,NNE,19,0.0,0.0,58,0.00,,,0.00,WeatherCatV1.15B25,2013-06-18 07:03:00,
2013-06-18 02:08:00,68.8,53.9,29.83,NNE,19,0.0,0.0,59,0.00,,,0.00,WeatherCatV1.15B25,2013-06-18 07:08:00,
2013-06-18 02:13:00,68.4,53.5,29.83,NNE,18,0.0,0.0,59,0.00,,,0.00,WeatherCatV1.15B25,2013-06-18 07:13:00,
2013-06-18 02:18:00,68.1,53.2,29.83,NNE,19,0.0,0.0,59,0.00,,,0.00,WeatherCatV1.15B25,2013-06-18 07:18:00,
2013-06-18 02:23:00,68.4,52.6,29.83,NNE,19,0.0,1.0,57,0.00,,,0.00,WeatherCatV1.15B25,2013-06-18 07:23:00,
2013-06-18 02:28:00,68.8,53.4,29.83,NNE,18,0.0,0.0,58,0.00,,,0.00,WeatherCatV1.15B25,2013-06-18 07:28:00,
2013-06-18 02:33:00,68.8,53.4,29.83,NNE,18,0.0,0.0,58,0.00,,,0.00,WeatherCatV1.15B25,2013-06-18 07:33:00,
2013-06-18 02:38:00,68.6,53.7,29.83,NNE,18,0.0,0.0,59,0.00,,,0.00,WeatherCatV1.15B25,2013-06-18 07:38:00,
2013-06-18 02:43:00,68.3,53.4,29.83,NNE,18,0.0,0.0,59,0.00,,,0.00,WeatherCatV1.15B25,2013-06-18 07:43:00,
2013-06-18 02:48:00,67.9,53.9,29.83,NNE,18,0.0,0.0,61,0.00,,,0.00,WeatherCatV1.15B25,2013-06-18 07:48:00,
2013-06-18 02:53:00,67.8,53.8,29.83,NNE,19,0.0,1.0,61,0.00,,,0.00,WeatherCatV1.15B25,2013-06-18 07:53:00,
2013-06-18 02:58:00,67.6,53.7,29.83,NNE,19,0.0,1.0,61,0.00,,,0.00,WeatherCatV1.15B25,2013-06-18 07:58:00,
2013-06-18 03:03:00,67.6,54.1,29.84,NNE,18,0.0,0.0,62,0.00,,,0.00,WeatherCatV1.15B25,2013-06-18 08:03:00,
2013-06-18 03:08:00,67.6,53.7,29.84,NNE,19,0.0,0.0,61,0.00,,,0.00,WeatherCatV1.15B25,2013-06-18 08:08:00,
2013-06-18 03:13:00,67.4,53.5,29.84,NNE,18,0.0,0.0,61,0.00,,,0.00,WeatherCatV1.15B25,2013-06-18 08:13:00,
2013-06-18 03:18:00,67.4,53.9,29.83,NNE,18,0.0,0.0,62,0.00,,,0.00,WeatherCatV1.15B25,2013-06-18 08:18:00,
2013-06-18 03:23:00,67.4,53.5,29.83,NNE,18,0.0,0.0,61,0.00,,,0.00,WeatherCatV1.15B25,2013-06-18 08:23:00,
2013-06-18 03:28:00,67.4,53.9,29.83,NNE,19,0.0,0.0,62,0.00,,,0.00,WeatherCatV1.15B25,2013-06-18 08:28:00,
2013-06-18 03:33:00,67.4,53.9,29.83,NNE,18,0.0,0.0,62,0.00,,,0.00,WeatherCatV1.15B25,2013-06-18 08:33:00,
2013-06-18 03:38:00,67.4,53.9,29.83,NNE,18,0.0,0.0,62,0.00,,,0.00,WeatherCatV1.15B25,2013-06-18 08:38:00,
2013-06-18 03:43:00,67.4,54.4,29.83,NNE,18,0.0,0.0,63,0.00,,,0.00,WeatherCatV1.15B25,2013-06-18 08:43:00,
2013-06-18 03:48:00,67.3,53.8,29.83,NNE,18,0.0,0.0,62,0.00,,,0.00,WeatherCatV1.15B25,2013-06-18 08:48:00,
2013-06-18 03:53:00,67.3,54.7,29.83,NNE,19,0.0,0.0,64,0.00,,,0.00,WeatherCatV1.15B25,2013-06-18 08:53:00,
2013-06-18 03:58:00,67.1,54.9,29.83,NNE,18,0.0,0.0,65,0.00,,,0.00,WeatherCatV1.15B25,2013-06-18 08:58:00,
2013-06-18 04:03:00,66.8,55.1,29.84,NNE,18,0.0,0.0,66,0.00,,,0.00,WeatherCatV1.15B25,2013-06-18 09:03:00,
2013-06-18 04:08:00,66.6,54.9,29.84,NNE,18,0.0,0.0,66,0.00,,,0.00,WeatherCatV1.15B25,2013-06-18 09:08:00,
2013-06-18 04:13:00,66.4,54.7,29.84,NNE,18,0.0,0.0,66,0.00,,,0.00,WeatherCatV1.15B25,2013-06-18 09:13:00,
2013-06-18 04:18:00,66.3,54.6,29.84,NNE,18,0.0,0.0,66,0.00,,,0.00,WeatherCatV1.15B25,2013-06-18 09:18:00,
2013-06-18 04:23:00,66.1,54.4,29.84,NNE,18,0.0,0.0,66,0.00,,,0.00,WeatherCatV1.15B25,2013-06-18 09:23:00,
2013-06-18 04:28:00,66.1,54.4,29.84,NNE,18,0.0,0.0,66,0.00,,,0.00,WeatherCatV1.15B25,2013-06-18 09:28:00,
2013-06-18 04:33:00,66.1,54.4,29.84,NNE,18,0.0,0.0,66,0.00,,,0.00,WeatherCatV1.15B25,2013-06-18 09:33:00,
2013-06-18 04:38:00,66.0,54.3,29.84,NNE,18,0.0,0.0,66,0.00,,,0.00,WeatherCatV1.15B25,2013-06-18 09:38:00,
2013-06-18 04:43:00,66.0,54.3,29.84,NNE,19,0.0,0.0,66,0.00,,,0.00,WeatherCatV1.15B25,2013-06-18 09:43:00,
2013-06-18 04:48:00,66.0,54.7,29.84,NNE,18,0.0,0.0,67,0.00,,,0.00,WeatherCatV1.15B25,2013-06-18 09:48:00,
2013-06-18 04:53:00,65.6,54.7,29.84,NNE,18,0.0,0.0,68,0.00,,,0.00,WeatherCatV1.15B25,2013-06-18 09:53:00,
2013-06-18 04:58:00,65.5,54.7,29.84,NNE,18,0.0,0.0,68,0.00,,,0.00,WeatherCatV1.15B25,2013-06-18 09:58:00,
2013-06-18 05:03:00,65.3,54.9,29.84,NNE,18,0.0,0.0,69,0.00,,,0.00,WeatherCatV1.15B25,2013-06-18 10:03:00,
2013-06-18 05:08:00,65.2,55.6,29.84,NNE,19,0.0,0.0,71,0.00,,,0.00,WeatherCatV1.15B25,2013-06-18 10:08:00,
2013-06-18 05:13:00,65.0,55.4,29.84,NNE,18,0.0,0.0,71,0.00,,,0.00,WeatherCatV1.15B25,2013-06-18 10:13:00,
2013-06-18 05:18:00,65.0,55.7,29.84,NNE,18,0.0,0.0,72,0.00,,,0.00,WeatherCatV1.15B25,2013-06-18 10:18:00,
2013-06-18 05:23:00,65.0,56.1,29.84,NNE,19,0.0,0.0,73,0.00,,,0.00,WeatherCatV1.15B25,2013-06-18 10:23:00,
2013-06-18 05:28:00,65.0,56.5,29.84,NNE,18,0.0,0.0,74,0.00,,,0.00,WeatherCatV1.15B25,2013-06-18 10:28:00,
2013-06-18 05:33:00,65.0,56.9,29.85,NNE,18,0.0,0.0,75,0.00,,,0.00,WeatherCatV1.15B25,2013-06-18 10:33:00,
2013-06-18 05:38:00,65.0,56.9,29.85,NNE,18,0.0,0.0,75,0.00,,,0.00,WeatherCatV1.15B25,2013-06-18 10:38:00,
2013-06-18 05:43:00,65.2,57.1,29.85,NNE,19,0.0,0.0,75,0.00,,,0.00,WeatherCatV1.15B25,2013-06-18 10:43:00,
2013-06-18 05:48:00,65.2,57.1,29.85,NNE,18,0.0,0.0,75,0.00,,,0.00,WeatherCatV1.15B25,2013-06-18 10:48:00,
2013-06-18 05:53:00,65.2,56.7,29.85,NNE,19,0.0,0.0,74,0.00,,,0.00,WeatherCatV1.15B25,2013-06-18 10:53:00,
2013-06-18 05:58:00,65.2,56.7,29.85,NNE,18,0.0,0.0,74,0.00,,,0.00,WeatherCatV1.15B25,2013-06-18 10:58:00,
2013-06-18 06:03:00,65.3,56.4,29.85,NNE,18,0.0,0.0,73,0.00,,,0.00,WeatherCatV1.15B25,2013-06-18 11:03:00,
2013-06-18 06:08:00,65.6,56.3,29.85,NNE,18,0.0,0.0,72,0.00,,,0.00,WeatherCatV1.15B25,2013-06-18 11:08:00,
2013-06-18 06:13:00,65.8,56.5,29.85,NNE,18,0.0,0.0,72,0.00,,,0.00,WeatherCatV1.15B25,2013-06-18 11:13:00,
2013-06-18 06:18:00,65.8,56.9,29.85,NNE,18,0.0,0.0,73,0.00,,,0.00,WeatherCatV1.15B25,2013-06-18 11:18:00,
2013-06-18 06:23:00,65.8,56.9,29.85,NNE,18,0.0,2.0,73,0.00,,,0.00,WeatherCatV1.15B25,2013-06-18 11:23:00,
2013-06-18 06:28:00,65.8,57.6,29.85,NNE,19,0.0,0.0,75,0.00,,,0.00,WeatherCatV1.15B25,2013-06-18 11:28:00,
2013-06-18 06:33:00,65.6,58.2,29.87,NNE,19,0.0,0.0,77,0.00,,,0.00,WeatherCatV1.15B25,2013-06-18 11:33:00,
2013-06-18 06:38:00,65.5,58.1,29.87,NNE,19,0.0,0.0,77,0.00,,,0.00,WeatherCatV1.15B25,2013-06-18 11:38:00,
2013-06-18 06:43:00,65.5,58.1,29.87,NNE,18,0.0,0.0,77,0.00,,,0.00,WeatherCatV1.15B25,2013-06-18 11:43:00,
2013-06-18 06:48:00,65.5,58.1,29.88,NNE,19,0.0,1.0,77,0.00,,,0.00,WeatherCatV1.15B25,2013-06-18 11:48:00,
2013-06-18 06:53:00,65.6,58.5,29.88,NNE,18,0.0,0.0,78,1.10,,,0.02,WeatherCatV1.15B25,2013-06-18 11:53:00,
2013-06-18 06:58:00,65.3,59.0,29.88,NNE,15,0.0,1.0,80,0.93,,,0.13,WeatherCatV1.15B25,2013-06-18 11:58:00,
2013-06-18 07:03:00,64.8,58.8,29.89,NNE,18,0.0,0.0,81,0.13,,,0.14,WeatherCatV1.15B25,2013-06-18 12:03:00,
2013-06-18 07:08:00,64.3,59.0,29.89,NNE,18,0.0,1.0,83,0.12,,,0.15,WeatherCatV1.15B25,2013-06-18 12:08:00,
2013-06-18 07:13:00,64.2,59.3,29.89,NNE,18,0.0,1.0,84,0.06,,,0.15,WeatherCatV1.15B25,2013-06-18 12:13:00,
2013-06-18 07:18:00,64.0,59.7,29.89,NNE,18,0.0,1.0,86,0.04,,,0.15,WeatherCatV1.15B25,2013-06-18 12:18:00,
2013-06-18 07:23:00,63.9,60.3,29.89,NNE,18,0.0,0.0,88,0.00,,,0.15,WeatherCatV1.15B25,2013-06-18 12:23:00,
2013-06-18 07:28:00,64.2,60.9,29.89,NNE,18,0.0,0.0,89,0.00,,,0.15,WeatherCatV1.15B25,2013-06-18 12:28:00,
2013-06-18 07:33:00,64.7,61.7,29.89,NNE,18,0.0,0.0,90,0.00,,,0.15,WeatherCatV1.15B25,2013-06-18 12:33:00,
2013-06-18 07:38:00,64.7,61.7,29.89,NNE,18,0.0,0.0,90,0.00,,,0.15,WeatherCatV1.15B25,2013-06-18 12:38:00,
2013-06-18 07:43:00,64.5,61.5,29.89,NNE,18,0.0,0.0,90,0.00,,,0.15,WeatherCatV1.15B25,2013-06-18 12:43:00,
2013-06-18 07:48:00,64.7,62.0,29.89,NNE,18,0.0,0.0,91,0.00,,,0.15,WeatherCatV1.15B25,2013-06-18 12:48:00,
2013-06-18 07:53:00,64.7,62.0,29.89,NNE,18,0.0,0.0,91,0.00,,,0.15,WeatherCatV1.15B25,2013-06-18 12:53:00,
2013-06-18 07:58:00,64.5,62.1,29.89,NNE,18,0.0,0.0,92,0.00,,,0.15,WeatherCatV1.15B25,2013-06-18 12:58:00,
2013-06-18 08:03:00,64.5,62.1,29.88,NNE,18,0.0,0.0,92,0.00,,,0.15,WeatherCatV1.15B25,2013-06-18 13:03:00,
2013-06-18 08:08:00,65.0,62.9,29.88,NNE,18,0.0,1.0,93,0.00,,,0.15,WeatherCatV1.15B25,2013-06-18 13:08:00,
2013-06-18 08:13:00,65.8,63.7,29.88,NNE,18,0.0,0.0,93,0.00,,,0.15,WeatherCatV1.15B25,2013-06-18 13:13:00,
2013-06-18 08:18:00,66.4,64.3,29.89,NNE,18,0.0,0.0,93,0.00,,,0.15,WeatherCatV1.15B25,2013-06-18 13:18:00,
2013-06-18 08:23:00,66.6,64.2,29.89,NNE,18,0.0,0.0,92,0.00,,,0.15,WeatherCatV1.15B25,2013-06-18 13:23:00,
2013-06-18 08:28:00,66.3,63.0,29.89,NNE,17,2.0,2.0,89,0.00,,,0.15,WeatherCatV1.15B25,2013-06-18 13:28:00,
2013-06-18 08:33:00,66.0,62.7,29.91,NNE,16,0.0,0.0,89,0.00,,,0.15,WeatherCatV1.15B25,2013-06-18 13:33:00,
2013-06-18 08:38:00,66.0,63.0,29.91,NNE,16,0.0,1.0,90,0.00,,,0.15,WeatherCatV1.15B25,2013-06-18 13:38:00,
2013-06-18 08:43:00,66.0,63.0,29.91,NNE,17,0.0,3.0,90,0.00,,,0.15,WeatherCatV1.15B25,2013-06-18 13:43:00,
2013-06-18 08:48:00,66.0,63.3,29.89,NNE,17,0.0,0.0,91,0.00,,,0.16,WeatherCatV1.15B25,2013-06-18 13:48:00,
2013-06-18 08:53:00,66.0,63.3,29.89,NNE,20,0.0,0.0,91,0.08,,,0.17,WeatherCatV1.15B25,2013-06-18 13:53:00,
2013-06-18 08:58:00,65.8,63.4,29.89,NNE,20,0.0,3.0,92,0.08,,,0.17,WeatherCatV1.15B25,2013-06-18 13:58:00,
2013-06-18 09:03:00,65.6,63.2,29.89,NNE,21,0.0,2.0,92,0.05,,,0.17,WeatherCatV1.15B25,2013-06-18 14:03:00,
2013-06-18 09:08:00,65.5,63.4,29.89,NNE,21,0.0,0.0,93,0.00,,,0.17,WeatherCatV1.15B25,2013-06-18 14:08:00,
2013-06-18 09:13:00,65.6,63.5,29.89,NNE,21,0.0,0.0,93,0.00,,,0.17,WeatherCatV1.15B25,2013-06-18 14:13:00,
2013-06-18 09:18:00,65.8,63.7,29.91,NNE,21,0.0,0.0,93,0.00,,,0.17,WeatherCatV1.15B25,2013-06-18 14:18:00,
2013-06-18 09:23:00,66.0,63.9,29.91,NNE,21,0.0,0.0,93,0.00,,,0.17,WeatherCatV1.15B25,2013-06-18 14:23:00,
2013-06-18 09:28:00,65.8,63.7,29.91,NNE,21,0.0,0.0,93,0.00,,,0.17,WeatherCatV1.15B25,2013-06-18 14:28:00,
2013-06-18 09:33:00,65.8,64.0,29.91,NNE,21,0.0,0.0,94,0.00,,,0.17,WeatherCatV1.15B25,2013-06-18 14:33:00,
2013-06-18 09:38:00,65.8,64.0,29.91,NNE,21,0.0,0.0,94,0.00,,,0.17,WeatherCatV1.15B25,2013-06-18 14:38:00,
2013-06-18 09:43:00,66.0,64.2,29.91,NNE,21,0.0,0.0,94,0.00,,,0.18,WeatherCatV1.15B25,2013-06-18 14:43:00,
2013-06-18 09:48:00,66.0,64.2,29.92,NNE,21,0.0,0.0,94,0.00,,,0.18,WeatherCatV1.15B25,2013-06-18 14:48:00,
2013-06-18 09:53:00,65.8,64.0,29.92,NNE,21,0.0,0.0,94,0.00,,,0.18,WeatherCatV1.15B25,2013-06-18 14:53:00,
2013-06-18 09:58:00,66.0,64.5,29.92,NNE,22,0.0,0.0,95,0.00,,,0.18,WeatherCatV1.15B25,2013-06-18 14:58:00,
2013-06-18 10:03:00,66.3,64.8,29.91,NNE,22,0.0,0.0,95,0.00,,,0.18,WeatherCatV1.15B25,2013-06-18 15:03:00,
2013-06-18 10:08:00,66.3,64.5,29.91,NNE,21,0.0,0.0,94,0.00,,,0.18,WeatherCatV1.15B25,2013-06-18 15:08:00,
2013-06-18 10:13:00,66.4,64.6,29.91,NNE,21,0.0,0.0,94,0.00,,,0.18,WeatherCatV1.15B25,2013-06-18 15:13:00,
2013-06-18 10:18:00,66.6,65.1,29.90,NNE,22,0.0,0.0,95,0.00,,,0.18,WeatherCatV1.15B25,2013-06-18 15:18:00,
2013-06-18 10:23:00,66.8,65.3,29.90,NNE,22,0.0,0.0,95,0.00,,,0.18,WeatherCatV1.15B25,2013-06-18 15:23:00,
2013-06-18 10:28:00,66.8,65.3,29.90,NNE,22,0.0,0.0,95,0.00,,,0.18,WeatherCatV1.15B25,2013-06-18 15:28:00,
2013-06-18 10:33:00,66.8,65.0,29.89,NNE,21,0.0,0.0,94,0.00,,,0.18,WeatherCatV1.15B25,2013-06-18 15:33:00,
2013-06-18 10:38:00,66.8,65.0,29.89,NNE,21,0.0,0.0,94,0.00,,,0.18,WeatherCatV1.15B25,2013-06-18 15:38:00,
2013-06-18 10:43:00,66.9,65.1,29.89,NNE,21,0.0,0.0,94,0.00,,,0.18,WeatherCatV1.15B25,2013-06-18 15:43:00,
2013-06-18 10:48:00,67.1,65.3,29.89,NNE,21,0.0,0.0,94,0.00,,,0.18,WeatherCatV1.15B25,2013-06-18 15:48:00,
2013-06-18 10:53:00,67.1,65.0,29.89,NNE,22,0.0,0.0,93,0.00,,,0.18,WeatherCatV1.15B25,2013-06-18 15:53:00,
2013-06-18 10:58:00,66.9,64.8,29.89,NNE,22,0.0,0.0,93,0.00,,,0.18,WeatherCatV1.15B25,2013-06-18 15:58:00,
2013-06-18 11:03:00,66.8,64.4,29.90,NNE,22,0.0,0.0,92,0.00,,,0.18,WeatherCatV1.15B25,2013-06-18 16:03:00,
2013-06-18 11:08:00,66.4,64.0,29.90,NNE,21,0.0,0.0,92,1.34,,,0.22,WeatherCatV1.15B25,2013-06-18 16:08:00,
2013-06-18 11:13:00,66.4,64.3,29.90,NNE,21,0.0,0.0,93,0.12,,,0.22,WeatherCatV1.15B25,2013-06-18 16:13:00,
2013-06-18 11:18:00,66.4,64.3,29.91,NNE,21,0.0,0.0,93,0.06,,,0.22,WeatherCatV1.15B25,2013-06-18 16:18:00,
2013-06-18 11:23:00,66.6,64.5,29.91,NNE,21,0.0,0.0,93,0.04,,,0.22,WeatherCatV1.15B25,2013-06-18 16:23:00,
2013-06-18 11:28:00,66.8,65.0,29.91,NNE,21,0.0,0.0,94,0.00,,,0.22,WeatherCatV1.15B25,2013-06-18 16:28:00,
2013-06-18 11:33:00,66.9,64.8,29.91,NNE,22,0.0,0.0,93,0.00,,,0.22,WeatherCatV1.15B25,2013-06-18 16:33:00,
2013-06-18 11:38:00,66.9,64.8,29.91,NNE,22,0.0,0.0,93,0.00,,,0.22,WeatherCatV1.15B25,2013-06-18 16:38:00,
2013-06-18 11:43:00,66.9,65.1,29.91,NNE,22,0.0,0.0,94,0.00,,,0.22,WeatherCatV1.15B25,2013-06-18 16:43:00,
2013-06-18 11:48:00,66.8,64.7,29.93,NNE,22,0.0,0.0,93,0.00,,,0.23,WeatherCatV1.15B25,2013-06-18 16:48:00,
2013-06-18 11:53:00,66.6,64.5,29.93,NNE,22,0.0,0.0,93,0.00,,,0.23,WeatherCatV1.15B25,2013-06-18 16:53:00,
2013-06-18 11:58:00,66.4,64.3,29.93,NNE,22,0.0,0.0,93,0.00,,,0.23,WeatherCatV1.15B25,2013-06-18 16:58:00,
2013-06-18 12:03:00,66.3,64.2,29.92,NNE,22,0.0,0.0,93,0.00,,,0.23,WeatherCatV1.15B25,2013-06-18 17:03:00,
2013-06-18 12:08:00,66.1,64.0,29.92,NNE,22,0.0,0.0,93,0.00,,,0.23,WeatherCatV1.15B25,2013-06-18 17:08:00,
2013-06-18 12:13:00,66.1,64.0,29.92,NNE,22,0.0,0.0,93,0.00,,,0.23,WeatherCatV1.15B25,2013-06-18 17:13:00,
2013-06-18 12:18:00,66.8,65.0,29.91,NNE,22,0.0,0.0,94,0.00,,,0.23,WeatherCatV1.15B25,2013-06-18 17:18:00,
2013-06-18 12:23:00,67.1,65.0,29.91,NNE,22,0.0,0.0,93,0.00,,,0.23,WeatherCatV1.15B25,2013-06-18 17:23:00,
2013-06-18 12:28:00,67.4,65.3,29.91,NNE,22,0.0,0.0,93,0.00,,,0.23,WeatherCatV1.15B25,2013-06-18 17:28:00,
2013-06-18 12:33:00,68.1,66.3,29.90,NNE,22,0.0,1.0,94,0.00,,,0.23,WeatherCatV1.15B25,2013-06-18 17:33:00,
2013-06-18 12:38:00,68.6,66.5,29.90,NNE,22,0.0,0.0,93,0.00,,,0.23,WeatherCatV1.15B25,2013-06-18 17:38:00,
2013-06-18 12:43:00,69.3,66.9,29.90,NNE,22,0.0,0.0,92,0.00,,,0.23,WeatherCatV1.15B25,2013-06-18 17:43:00,
2013-06-18 12:48:00,69.3,65.6,29.89,NNE,22,0.0,1.0,88,0.00,,,0.23,WeatherCatV1.15B25,2013-06-18 17:48:00,
2013-06-18 12:53:00,69.6,64.9,29.89,NNE,20,0.0,0.0,85,0.00,,,0.23,WeatherCatV1.15B25,2013-06-18 17:53:00,
2013-06-18 12:58:00,69.9,62.0,29.89,NNE,20,0.0,1.0,76,0.00,,,0.23,WeatherCatV1.15B25,2013-06-18 17:58:00,
2013-06-18 13:03:00,70.6,63.0,29.89,NNE,20,0.0,0.0,77,0.00,,,0.23,WeatherCatV1.15B25,2013-06-18 18:03:00,
2013-06-18 13:08:00,71.3,63.3,29.89,NNE,20,0.0,0.0,76,0.00,,,0.23,WeatherCatV1.15B25,2013-06-18 18:08:00,
2013-06-18 13:13:00,72.0,63.2,29.89,North,10,0.0,1.0,74,0.00,,,0.23,WeatherCatV1.15B25,2013-06-18 18:13:00,
2013-06-18 13:18:00,72.5,64.5,29.89,North,9,0.0,1.0,76,0.00,,,0.23,WeatherCatV1.15B25,2013-06-18 18:18:00,
2013-06-18 13:23:00,73.0,63.8,29.89,North,9,0.0,0.0,73,0.00,,,0.23,WeatherCatV1.15B25,2013-06-18 18:23:00,
2013-06-18 13:28:00,73.5,63.9,29.89,North,9,0.0,1.0,72,0.00,,,0.23,WeatherCatV1.15B25,2013-06-18 18:28:00,
2013-06-18 13:33:00,73.9,62.2,29.88,North,10,1.0,2.0,67,0.00,,,0.23,WeatherCatV1.15B25,2013-06-18 18:33:00,
2013-06-18 13:38:00,74.0,61.9,29.88,NNE,17,0.0,3.0,66,0.00,,,0.24,WeatherCatV1.15B25,2013-06-18 18:38:00,
2013-06-18 13:43:00,74.2,62.9,29.88,NNE,32,3.0,4.0,68,0.00,,,0.24,WeatherCatV1.15B25,2013-06-18 18:43:00,
2013-06-18 13:48:00,74.7,61.7,29.88,NNE,31,0.0,0.0,64,0.00,,,0.24,WeatherCatV1.15B25,2013-06-18 18:48:00,
2013-06-18 13:53:00,75.3,61.4,29.88,NNE,31,0.0,2.0,62,0.00,,,0.24,WeatherCatV1.15B25,2013-06-18 18:53:00,
2013-06-18 13:58:00,75.6,62.5,29.88,NNE,31,0.0,0.0,64,0.00,,,0.24,WeatherCatV1.15B25,2013-06-18 18:58:00,
2013-06-18 14:03:00,76.0,62.5,29.87,NNE,31,0.0,1.0,63,0.00,,,0.24,WeatherCatV1.15B25,2013-06-18 19:03:00,
2013-06-18 14:08:00,76.5,63.4,29.87,NNE,31,0.0,0.0,64,0.00,,,0.24,WeatherCatV1.15B25,2013-06-18 19:08:00,
2013-06-18 14:13:00,76.7,64.0,29.87,NNE,31,0.0,0.0,65,0.00,,,0.24,WeatherCatV1.15B25,2013-06-18 19:13:00,
2013-06-18 14:18:00,77.0,63.9,29.87,NNE,31,0.0,2.0,64,0.00,,,0.24,WeatherCatV1.15B25,2013-06-18 19:18:00,
2013-06-18 14:23:00,77.2,62.7,29.87,NNE,31,0.0,0.0,61,0.00,,,0.24,WeatherCatV1.15B25,2013-06-18 19:23:00,
2013-06-18 14:28:00,77.2,57.6,29.87,NNE,31,0.0,1.0,51,0.00,,,0.24,WeatherCatV1.15B25,2013-06-18 19:28:00,
2013-06-18 14:33:00,77.6,59.6,29.88,NNE,31,0.0,1.0,54,0.00,,,0.24,WeatherCatV1.15B25,2013-06-18 19:33:00,
2013-06-18 14:38:00,77.9,59.4,29.88,NE,34,0.0,1.0,53,0.00,,,0.24,WeatherCatV1.15B25,2013-06-18 19:38:00,
2013-06-18 14:43:00,77.7,55.2,29.88,NE,34,0.0,0.0,46,0.00,,,0.24,WeatherCatV1.15B25,2013-06-18 19:43:00,
2013-06-18 14:48:00,78.1,53.1,29.87,NE,34,0.0,2.0,42,0.00,,,0.24,WeatherCatV1.15B25,2013-06-18 19:48:00,
2013-06-18 14:53:00,78.6,56.1,29.87,NE,34,0.0,0.0,46,0.00,,,0.24,WeatherCatV1.15B25,2013-06-18 19:53:00,
2013-06-18 14:58:00,78.5,52.1,29.87,NE,34,0.0,0.0,40,0.00,,,0.24,WeatherCatV1.15B25,2013-06-18 19:58:00,
2013-06-18 15:03:00,78.8,55.0,29.88,NE,34,0.0,1.0,44,0.00,,,0.24,WeatherCatV1.15B25,2013-06-18 20:03:00,
2013-06-18 15:08:00,79.8,57.8,29.88,NE,45,0.0,3.0,47,0.00,,,0.24,WeatherCatV1.15B25,2013-06-18 20:08:00,
2013-06-18 15:13:00,79.8,53.3,29.88,NE,45,0.0,0.0,40,0.00,,,0.24,WeatherCatV1.15B25,2013-06-18 20:13:00,
2013-06-18 15:18:00,79.6,52.4,29.87,NE,45,0.0,0.0,39,0.00,,,0.24,WeatherCatV1.15B25,2013-06-18 20:18:00,
2013-06-18 15:23:00,79.8,55.3,29.87,NE,45,0.0,0.0,43,0.00,,,0.24,WeatherCatV1.15B25,2013-06-18 20:23:00,
2013-06-18 15:28:00,79.6,55.1,29.87,NE,45,0.0,1.0,43,0.00,,,0.24,WeatherCatV1.15B25,2013-06-18 20:28:00,
2013-06-18 15:33:00,79.6,57.6,29.86,NE,45,0.0,0.0,47,0.00,,,0.24,WeatherCatV1.15B25,2013-06-18 20:33:00,
2013-06-18 15:38:00,79.8,60.6,29.86,NE,45,0.0,0.0,52,0.00,,,0.24,WeatherCatV1.15B25,2013-06-18 20:38:00,
2013-06-18 15:43:00,79.4,55.6,29.86,NE,45,0.0,0.0,44,0.00,,,0.24,WeatherCatV1.15B25,2013-06-18 20:43:00,
2013-06-18 15:48:00,79.2,54.1,29.86,NE,45,0.0,1.0,42,0.00,,,0.24,WeatherCatV1.15B25,2013-06-18 20:48:00,
2013-06-18 15:53:00,79.2,54.1,29.86,NE,45,0.0,0.0,42,0.00,,,0.24,WeatherCatV1.15B25,2013-06-18 20:53:00,
2013-06-18 15:58:00,79.6,55.1,29.86,NE,45,0.0,0.0,43,0.00,,,0.24,WeatherCatV1.15B25,2013-06-18 20:58:00,
2013-06-18 16:03:00,80.1,56.2,29.86,NE,45,0.0,0.0,44,0.00,,,0.24,WeatherCatV1.15B25,2013-06-18 21:03:00,
2013-06-18 16:08:00,80.9,55.6,29.86,NE,46,1.0,1.0,42,0.00,,,0.24,WeatherCatV1.15B25,2013-06-18 21:08:00,
2013-06-18 16:13:00,80.7,52.0,29.86,NE,46,0.0,0.0,37,0.00,,,0.24,WeatherCatV1.15B25,2013-06-18 21:13:00,
2013-06-18 16:18:00,80.5,53.2,29.85,NE,46,0.0,0.0,39,0.00,,,0.24,WeatherCatV1.15B25,2013-06-18 21:18:00,
2013-06-18 16:23:00,80.5,52.5,29.85,NE,46,0.0,0.0,38,0.00,,,0.24,WeatherCatV1.15B25,2013-06-18 21:23:00,
2013-06-18 16:28:00,80.7,54.8,29.85,NE,46,0.0,0.0,41,0.00,,,0.24,WeatherCatV1.15B25,2013-06-18 21:28:00,
2013-06-18 16:33:00,80.7,52.7,29.84,NE,46,0.0,0.0,38,0.00,,,0.24,WeatherCatV1.15B25,2013-06-18 21:33:00,
2013-06-18 16:38:00,81.1,54.5,29.84,NE,46,0.0,0.0,40,0.00,,,0.24,WeatherCatV1.15B25,2013-06-18 21:38:00,
2013-06-18 16:43:00,81.4,51.1,29.84,NE,46,0.0,0.0,35,0.00,,,0.24,WeatherCatV1.15B25,2013-06-18 21:43:00,
2013-06-18 16:48:00,81.8,52.2,29.84,NE,46,0.0,0.0,36,0.00,,,0.24,WeatherCatV1.15B25,2013-06-18 21:48:00,
2013-06-18 16:53:00,82.2,51.8,29.84,NE,46,0.0,0.0,35,0.00,,,0.24,WeatherCatV1.15B25,2013-06-18 21:53:00,
2013-06-18 16:58:00,82.2,53.3,29.84,NE,46,0.0,0.0,37,0.00,,,0.24,WeatherCatV1.15B25,2013-06-18 21:58:00,
2013-06-18 17:03:00,82.0,50.0,29.83,NE,46,0.0,0.0,33,0.00,,,0.24,WeatherCatV1.15B25,2013-06-18 22:03:00,
2013-06-18 17:08:00,82.2,51.0,29.83,NE,46,0.0,1.0,34,0.00,,,0.24,WeatherCatV1.15B25,2013-06-18 22:08:00,
2013-06-18 17:13:00,81.8,48.2,29.83,NE,46,0.0,0.0,31,0.00,,,0.24,WeatherCatV1.15B25,2013-06-18 22:13:00,
2013-06-18 17:18:00,81.6,48.0,29.83,NE,46,0.0,0.0,31,0.00,,,0.24,WeatherCatV1.15B25,2013-06-18 22:18:00,
2013-06-18 17:23:00,81.6,47.1,29.83,NE,46,0.0,0.0,30,0.00,,,0.24,WeatherCatV1.15B25,2013-06-18 22:23:00,
2013-06-18 17:28:00,81.8,46.4,29.83,NE,46,0.0,0.0,29,0.00,,,0.24,WeatherCatV1.15B25,2013-06-18 22:28:00,
2013-06-18 17:33:00,81.6,47.1,29.83,NE,46,0.0,0.0,30,0.00,,,0.24,WeatherCatV1.15B25,2013-06-18 22:33:00,
2013-06-18 17:38:00,81.4,45.1,29.83,NE,46,0.0,0.0,28,0.00,,,0.24,WeatherCatV1.15B25,2013-06-18 22:38:00,
2013-06-18 17:43:00,81.2,45.9,29.83,NE,46,0.0,0.0,29,0.00,,,0.24,WeatherCatV1.15B25,2013-06-18 22:43:00,
2013-06-18 17:48:00,81.2,45.9,29.83,NE,46,0.0,0.0,29,0.00,,,0.24,WeatherCatV1.15B25,2013-06-18 22:48:00,
2013-06-18 17:53:00,81.4,49.5,29.83,NE,46,0.0,0.0,33,0.00,,,0.24,WeatherCatV1.15B25,2013-06-18 22:53:00,
2013-06-18 17:58:00,81.4,48.7,29.83,NE,46,0.0,0.0,32,0.00,,,0.24,WeatherCatV1.15B25,2013-06-18 22:58:00,
2013-06-18 18:03:00,81.4,47.0,29.82,NE,46,0.0,0.0,30,0.00,,,0.24,WeatherCatV1.15B25,2013-06-18 23:03:00,
2013-06-18 18:08:00,81.4,47.8,29.82,NE,46,0.0,0.0,31,0.00,,,0.24,WeatherCatV1.15B25,2013-06-18 23:08:00,
2013-06-18 18:13:00,81.2,50.1,29.82,NE,46,0.0,1.0,34,0.00,,,0.24,WeatherCatV1.15B25,2013-06-18 23:13:00,
2013-06-18 18:18:00,81.1,47.6,29.81,NE,46,0.0,0.0,31,0.00,,,0.24,WeatherCatV1.15B25,2013-06-18 23:18:00,
2013-06-18 18:23:00,80.9,46.5,29.81,NE,46,0.0,0.0,30,0.00,,,0.24,WeatherCatV1.15B25,2013-06-18 23:23:00,
2013-06-18 18:28:00,81.1,46.7,29.81,NE,46,0.0,1.0,30,0.00,,,0.24,WeatherCatV1.15B25,2013-06-18 23:28:00,
2013-06-18 18:33:00,81.1,47.6,29.81,NE,46,0.0,0.0,31,0.00,,,0.24,WeatherCatV1.15B25,2013-06-18 23:33:00,
2013-06-18 18:38:00,81.1,48.4,29.81,NE,46,0.0,0.0,32,0.00,,,0.24,WeatherCatV1.15B25,2013-06-18 23:38:00,
2013-06-18 18:43:00,80.9,51.4,29.81,NE,46,0.0,0.0,36,0.00,,,0.24,WeatherCatV1.15B25,2013-06-18 23:43:00,
2013-06-18 18:48:00,80.7,51.2,29.81,NE,46,0.0,0.0,36,0.00,,,0.24,WeatherCatV1.15B25,2013-06-18 23:48:00,
2013-06-18 18:53:00,80.7,49.7,29.81,NE,46,0.0,0.0,34,0.00,,,0.24,WeatherCatV1.15B25,2013-06-18 23:53:00,
2013-06-18 18:58:00,80.5,50.3,29.81,NE,46,0.0,0.0,35,0.00,,,0.24,WeatherCatV1.15B25,2013-06-18 23:58:00,
2013-06-18 19:03:00,80.5,51.1,29.82,NE,46,0.0,0.0,36,0.00,,,0.24,WeatherCatV1.15B25,2013-06-19 00:03:00,
2013-06-18 19:08:00,80.3,49.3,29.82,NE,46,0.0,0.0,34,0.00,,,0.24,WeatherCatV1.15B25,2013-06-19 00:08:00,
2013-06-18 19:13:00,80.3,53.8,29.82,NE,47,0.0,1.0,40,0.00,,,0.24,WeatherCatV1.15B25,2013-06-19 00:13:00,
2013-06-18 19:18:00,80.3,53.1,29.81,NE,46,0.0,1.0,39,0.00,,,0.24,WeatherCatV1.15B25,2013-06-19 00:18:00,
2013-06-18 19:23:00,80.1,53.6,29.81,NE,46,0.0,0.0,40,0.00,,,0.24,WeatherCatV1.15B25,2013-06-19 00:23:00,
2013-06-18 19:28:00,80.1,54.9,29.81,NE,47,0.0,0.0,42,0.00,,,0.24,WeatherCatV1.15B25,2013-06-19 00:28:00,
2013-06-18 19:33:00,80.1,54.9,29.81,NE,46,0.0,0.0,42,0.00,,,0.24,WeatherCatV1.15B25,2013-06-19 00:33:00,
2013-06-18 19:38:00,80.1,53.6,29.81,NE,47,0.0,0.0,40,0.00,,,0.24,WeatherCatV1.15B25,2013-06-19 00:38:00,
2013-06-18 19:43:00,79.9,54.7,29.81,NE,47,0.0,0.0,42,0.00,,,0.24,WeatherCatV1.15B25,2013-06-19 00:43:00,
2013-06-18 19:48:00,79.8,55.3,29.81,NE,46,0.0,0.0,43,0.00,,,0.24,WeatherCatV1.15B25,2013-06-19 00:48:00,
2013-06-18 19:53:00,79.4,54.9,29.81,NE,47,0.0,0.0,43,0.00,,,0.24,WeatherCatV1.15B25,2013-06-19 00:53:00,
2013-06-18 19:58:00,79.0,53.9,29.81,NE,47,0.0,0.0,42,0.00,,,0.24,WeatherCatV1.15B25,2013-06-19 00:58:00,
2013-06-18 20:03:00,78.6,54.2,29.81,NE,47,0.0,0.0,43,0.00,,,0.24,WeatherCatV1.15B25,2013-06-19 01:03:00,
2013-06-18 20:08:00,78.3,55.2,29.81,NE,47,0.0,0.0,45,0.00,,,0.24,WeatherCatV1.15B25,2013-06-19 01:08:00,
2013-06-18 20:13:00,77.7,55.2,29.81,NE,47,0.0,0.0,46,0.00,,,0.24,WeatherCatV1.15B25,2013-06-19 01:13:00,
2013-06-18 20:18:00,77.2,55.4,29.81,NE,47,0.0,0.0,47,0.00,,,0.24,WeatherCatV1.15B25,2013-06-19 01:18:00,
2013-06-18 20:23:00,76.7,55.5,29.81,NE,46,0.0,0.0,48,0.00,,,0.24,WeatherCatV1.15B25,2013-06-19 01:23:00,
2013-06-18 20:28:00,76.1,55.5,29.81,NE,47,0.0,0.0,49,0.00,,,0.24,WeatherCatV1.15B25,2013-06-19 01:28:00,
2013-06-18 20:33:00,75.8,55.3,29.82,NE,47,0.0,0.0,49,0.00,,,0.24,WeatherCatV1.15B25,2013-06-19 01:33:00,
2013-06-18 20:38:00,75.3,54.8,29.82,NE,47,0.0,0.0,49,0.00,,,0.24,WeatherCatV1.15B25,2013-06-19 01:38:00,
2013-06-18 20:43:00,75.1,54.6,29.82,NE,47,0.0,0.0,49,0.00,,,0.24,WeatherCatV1.15B25,2013-06-19 01:43:00,
2013-06-18 20:48:00,74.7,54.3,29.82,NE,46,0.0,0.0,49,0.00,,,0.24,WeatherCatV1.15B25,2013-06-19 01:48:00,
2013-06-18 20:53:00,74.4,54.0,29.82,NE,47,0.0,0.0,49,0.00,,,0.24,WeatherCatV1.15B25,2013-06-19 01:53:00,
2013-06-18 20:58:00,74.0,54.2,29.82,NE,46,0.0,0.0,50,0.00,,,0.24,WeatherCatV1.15B25,2013-06-19 01:58:00,
2013-06-18 21:03:00,73.7,55.0,29.82,NE,47,0.0,0.0,52,0.00,,,0.24,WeatherCatV1.15B25,2013-06-19 02:03:00,
2013-06-18 21:09:00,73.3,55.6,29.82,NE,47,0.0,0.0,54,0.00,,,0.24,WeatherCatV1.15B25,2013-06-19 02:09:00,
2013-06-18 21:14:00,73.0,55.9,29.82,NE,47,0.0,0.0,55,0.00,,,0.24,WeatherCatV1.15B25,2013-06-19 02:14:00,
2013-06-18 21:19:00,72.7,55.6,29.82,NE,47,0.0,0.0,55,0.00,,,0.24,WeatherCatV1.15B25,2013-06-19 02:19:00,
2013-06-18 21:24:00,72.3,55.7,29.82,NE,47,0.0,0.0,56,0.00,,,0.24,WeatherCatV1.15B25,2013-06-19 02:24:00,
2013-06-18 21:29:00,72.0,55.9,29.82,NE,47,0.0,0.0,57,0.00,,,0.24,WeatherCatV1.15B25,2013-06-19 02:29:00,
2013-06-18 21:34:00,71.6,55.1,29.82,NE,47,0.0,0.0,56,0.00,,,0.24,WeatherCatV1.15B25,2013-06-19 02:34:00,
2013-06-18 21:39:00,71.5,55.5,29.82,NE,46,0.0,0.0,57,0.00,,,0.24,WeatherCatV1.15B25,2013-06-19 02:39:00,
2013-06-18 21:44:00,71.1,54.6,29.83,NE,47,0.0,0.0,56,0.00,,,0.24,WeatherCatV1.15B25,2013-06-19 02:44:00,
2013-06-18 21:49:00,70.8,54.8,29.83,NE,47,0.0,0.0,57,0.00,,,0.24,WeatherCatV1.15B25,2013-06-19 02:49:00,
2013-06-18 21:54:00,70.6,55.6,29.83,NE,47,0.0,0.0,59,0.00,,,0.24,WeatherCatV1.15B25,2013-06-19 02:54:00,
2013-06-18 21:59:00,70.3,55.3,29.83,NE,47,0.0,0.0,59,0.00,,,0.24,WeatherCatV1.15B25,2013-06-19 02:59:00,
2013-06-18 22:04:00,70.1,55.6,29.83,NE,47,0.0,0.0,60,0.00,,,0.24,WeatherCatV1.15B25,2013-06-19 03:04:00,
2013-06-18 22:09:00,69.9,55.8,29.83,NE,47,0.0,0.0,61,0.00,,,0.24,WeatherCatV1.15B25,2013-06-19 03:09:00,
2013-06-18 22:14:00,69.9,55.8,29.84,NE,47,0.0,0.0,61,0.00,,,0.24,WeatherCatV1.15B25,2013-06-19 03:14:00,
2013-06-18 22:19:00,69.8,56.2,29.84,NE,47,0.0,0.0,62,0.00,,,0.24,WeatherCatV1.15B25,2013-06-19 03:19:00,
2013-06-18 22:24:00,69.8,56.6,29.84,NE,47,0.0,0.0,63,0.00,,,0.24,WeatherCatV1.15B25,2013-06-19 03:24:00,
2013-06-18 22:29:00,69.4,55.8,29.84,NE,47,0.0,0.0,62,0.00,,,0.24,WeatherCatV1.15B25,2013-06-19 03:29:00,
2013-06-18 22:34:00,69.3,56.2,29.84,NE,47,0.0,0.0,63,0.00,,,0.24,WeatherCatV1.15B25,2013-06-19 03:34:00,
2013-06-18 22:39:00,69.1,56.0,29.84,NE,47,0.0,0.0,63,0.00,,,0.24,WeatherCatV1.15B25,2013-06-19 03:39:00,
2013-06-18 22:44:00,68.9,55.8,29.84,NE,47,0.0,0.0,63,0.00,,,0.24,WeatherCatV1.15B25,2013-06-19 03:44:00,
2013-06-18 22:49:00,68.8,56.1,29.84,NE,47,0.0,0.0,64,0.00,,,0.24,WeatherCatV1.15B25,2013-06-19 03:49:00,
2013-06-18 22:54:00,68.6,56.4,29.84,NE,47,0.0,0.0,65,0.00,,,0.24,WeatherCatV1.15B25,2013-06-19 03:54:00,
2013-06-18 22:59:00,68.4,56.6,29.84,NE,47,0.0,0.0,66,0.00,,,0.24,WeatherCatV1.15B25,2013-06-19 03:59:00,
2013-06-18 23:01:00,68.4,56.6,29.84,NE,47,0.0,0.0,66,0.00,,,0.24,WeatherCatV1.15B25,2013-06-19 04:01:00,
2013-06-18 23:06:00,68.3,56.1,29.84,NE,47,0.0,0.0,65,0.00,,,0.24,WeatherCatV1.15B25,2013-06-19 04:06:00,
2013-06-18 23:11:00,68.1,55.9,29.84,NE,47,0.0,0.0,65,0.00,,,0.24,WeatherCatV1.15B25,2013-06-19 04:11:00,
2013-06-18 23:16:00,67.9,55.7,29.84,NE,47,0.0,0.0,65,0.00,,,0.24,WeatherCatV1.15B25,2013-06-19 04:16:00,
2013-06-18 23:21:00,67.9,56.1,29.84,NE,47,0.0,0.0,66,0.00,,,0.24,WeatherCatV1.15B25,2013-06-19 04:21:00,
2013-06-18 23:26:00,67.9,57.3,29.84,NE,47,0.0,0.0,69,0.00,,,0.24,WeatherCatV1.15B25,2013-06-19 04:26:00,
2013-06-18 23:31:00,67.8,56.8,29.84,NE,47,0.0,0.0,68,0.00,,,0.24,WeatherCatV1.15B25,2013-06-19 04:31:00,
2013-06-18 23:36:00,67.6,57.1,29.84,NE,47,0.0,0.0,69,0.00,,,0.24,WeatherCatV1.15B25,2013-06-19 04:36:00,
2013-06-18 23:41:00,67.3,56.4,29.84,NE,47,0.0,0.0,68,0.00,,,0.24,WeatherCatV1.15B25,2013-06-19 04:41:00,
2013-06-18 23:46:00,67.1,56.2,29.84,NE,47,0.0,0.0,68,0.00,,,0.24,WeatherCatV1.15B25,2013-06-19 04:46:00,
2013-06-18 23:51:00,67.1,56.6,29.84,NE,47,0.0,0.0,69,0.00,,,0.24,WeatherCatV1.15B25,2013-06-19 04:51:00,
2013-06-18 23:56:00,67.1,57.0,29.84,NE,47,0.0,0.0,70,0.00,,,0.24,WeatherCatV1.15B25,2013-06-19 04:56:00,